This is the latest recevied weather packets stored in our database for station/object AE5PL. If no packets are shown the sender has not sent any weather packets the latest 10 day(s).
| Time | Temp. | Humidity | Pressure | Rain* | Wind** | Luminosity | Snow |
|---|---|---|---|---|---|---|---|
| 1778194951 | 21.67° C | 53% | 1014.9 hPa | - | - | - | - |
| 1778194651 | 21.67° C | 53% | 1014.9 hPa | - | - | - | - |
| 1778194351 | 21.67° C | 51% | 1015 hPa | - | - | - | - |
| 1778194051 | 21.67° C | 53% | 1015.1 hPa | - | - | - | - |
| 1778193751 | 21.67° C | 52% | 1015.1 hPa | - | - | - | - |
| 1778193451 | 22.22° C | 51% | 1015.2 hPa | - | - | - | - |
| 1778193151 | 22.22° C | 50% | 1015.2 hPa | - | - | - | - |
| 1778192851 | 22.22° C | 49% | 1015.2 hPa | - | - | - | - |
| 1778192551 | 22.22° C | 49% | 1015.3 hPa | - | - | - | - |
| 1778192251 | 22.22° C | 49% | 1015.1 hPa | - | - | - | - |
| 1778191951 | 22.22° C | 52% | 1015.2 hPa | - | - | - | - |
| 1778191651 | 22.22° C | 52% | 1015.3 hPa | - | - | - | - |
| 1778191351 | 22.22° C | 49% | 1015.3 hPa | - | - | - | - |
| 1778191051 | 22.78° C | 51% | 1015.1 hPa | - | - | - | - |
| 1778190751 | 22.78° C | 49% | 1015.3 hPa | - | - | - | - |
| 1778190451 | 22.78° C | 47% | 1015.2 hPa | - | - | - | - |
| 1778190151 | 22.78° C | 48% | 1015.4 hPa | - | - | - | - |
| 1778189851 | 22.78° C | 47% | 1015.4 hPa | - | - | - | - |
| 1778189551 | 22.78° C | 47% | 1015.5 hPa | - | - | - | - |
| 1778189251 | 22.78° C | 46% | 1015.5 hPa | - | - | - | - |
| 1778188951 | 22.78° C | 46% | 1015.7 hPa | - | - | - | - |
| 1778188651 | 22.78° C | 48% | 1015.7 hPa | - | - | - | - |
| 1778188351 | 22.78° C | 47% | 1015.6 hPa | - | - | - | - |
| 1778188051 | 22.78° C | 49% | 1015.5 hPa | - | - | - | - |
| 1778187751 | 22.78° C | 49% | 1015.6 hPa | - | - | - | - |
* Rain since midnight (hover to see other rain measurements)
** Current wind speed in m/s (hover to see current wind gust speed)